User: anonymous   Login
Location: Heilwood
(40.6210°N, 78.9150°W)
Time: 03:12:08
(UTC-04:00)
Language:

Iridium 4 Rocket - Orbit

View from above orbital plane
View from above orbital plane
View from above satellite
View from above satellite

Ground track
Ground track

The orbit data is extracted from the following two-line orbital elements,

1 24797U 97020F   17149.70263253 +.00000137 +00000-0 +23698-4 0  9990
2 24797 086.8955 000.1516 0226231 019.5638 022.8239 14.43977285055245
Epoch (UTC): 29 May 2017 16:51:47
Eccentricity: 0.0226231
inclination: 86.8955°
perigee height: 584 km
apogee height: 906 km
right ascension of ascending node: 0.1516°
argument of perigee: 19.5638°
revolutions per day: 14.43977285
mean anomaly at epoch: 22.8239°
orbit number at epoch: 5524

The dashed part of the orbit path shows where the satellite is in the earth's shadow,  

DLR